Retour au catalogue

STARLINK-5888

ActifCommunicationsSSO
NORAD 56348·PAYLOAD·🇺🇸 United States

Lancé Apr 27, 2023 depuis Vandenberg Space Force Base

Loading…

Prochains Passages (prochaines 24 heures)

TLE

FraisSource: CelesTrak SupGP

Époque: Sep 14, 2026, 20:55 UTC

1 56348C 23058AH  26257.87201389  .00774640  00000+0  40422-1 0  2571
2 56348  97.2857 251.9529 0001643  83.6031 101.0041 15.15630978    17

Suivez STARLINK-5888 en temps réel avec AllMySat

Download on the App Store